Location: Unspecified
(58.9933°N, 5.6375°E)
Time: 11:23:13
(UTC+02:00)

Resurs 1-4 Rocket - Visible Passes

Search period start: 01 April 2015 00:00
Search period end: 11 April 2015 00:00
Orbit: 800 x 815 km, 98.4° (Epoch: 30 March)

Date Brightness Start Highest point End Pass type
(mag) Time Alt. Az. Time Alt. Az. Time Alt. Az.
01 Apr 3.1 05:00:58 10° NNE 05:06:01 45° E 05:11:04 10° S visible
02 Apr 3.7 04:36:39 10° NNE 04:41:19 31° E 04:46:01 10° SSE visible
02 Apr 2.2 06:16:22 10° NNE 06:21:36 63° WNW 06:26:48 10° SW visible
03 Apr 4.3 04:12:29 10° NE 04:16:31 22° E 04:20:39 10° SE visible
03 Apr 2.1 05:51:50 10° NNE 05:57:09 87° WNW 06:02:26 10° SSW visible
04 Apr 4.6 03:48:37 10° NE 03:51:38 16° E 03:54:50 10° ESE visible
04 Apr 2.5 05:27:21 10° NNE 05:32:38 67° ESE 05:37:53 10° S visible
05 Apr 4.9 03:25:49 10° ENE 03:26:38 10° ENE 03:27:43 10° E visible
05 Apr 3.1 05:02:56 10° NNE 05:08:02 46° E 05:13:06 10° S visible
06 Apr 3.7 04:38:37 10° NNE 04:43:20 33° E 04:48:04 10° SSE visible
07 Apr 4.2 04:14:25 10° NE 04:18:33 23° E 04:22:44 10° SE visible
07 Apr 2.1 05:53:50 10° NNE 05:59:08 84° WNW 06:04:25 10° SSW visible
08 Apr 4.6 03:50:30 10° NE 03:53:40 16° E 03:56:58 10° ESE visible
08 Apr 2.4 05:29:21 10° NNE 05:34:37 69° ESE 05:39:53 10° S visible
09 Apr 4.9 03:27:26 10° ENE 03:28:41 11° ENE 03:30:11 10° E visible
09 Apr 3.0 05:04:54 10° NNE 05:10:01 48° E 05:15:07 10° S visible
10 Apr 3.7 04:40:34 10° NNE 04:45:20 34° E 04:50:07 10° SSE visible
